HST 1 20580U 90037B 26033.96221343 .00008282 00000+0 27848-3 0 9999 2 20580 28.4669 276.8051 0002014 87.5002 272.5824 15.28919278767990 POLAR 1 23802U 96013A 26033.24819365 .00000236 00000+0 00000+0 0 9995 2 23802 79.6983 228.5855 6333715 213.6433 82.0506 1.29845968143106 SWAS 1 25560U 98071A 26033.92567495 .00003118 00000+0 20595-3 0 9990 2 25560 69.8945 213.4859 0002795 119.0813 241.0630 15.08516302477015 CXO 1 25867U 99040B 26034.50897227 .00000739 00000+0 00000+0 0 9992 2 25867 54.0018 120.6888 8050674 310.8579 0.1951 0.37804724 16822 XMM-NEWTON 1 25989U 99066A 26031.72532401 .00000094 00000+0 00000+0 0 9990 2 25989 65.1743 284.7836 4724780 67.3227 359.9893 0.50131279 22321 TERRA 1 25994U 99068A 26034.12271148 .00000468 00000+0 10447-3 0 9998 2 25994 97.9665 88.8651 0001071 312.1061 75.4803 14.60975052390033 CLUSTER II-FM7 (SAMBA) 1 26410U 00041A 26023.07807862 .00004677 00000+0 00000+0 0 9991 2 26410 148.3592 29.7174 8835954 245.6118 359.2301 0.44786329 19664 CLUSTER II-FM8 (TANGO) 1 26464U 00045B 26019.78457485 .00005071 00000+0 00000+0 0 9998 2 26464 148.5838 29.9991 8833034 245.7591 359.3805 0.44425532 19644 ODIN 1 26702U 01007A 26034.08552251 .00039379 00000+0 57815-3 0 9997 2 26702 97.4136 68.7855 0001447 301.4092 58.7021 15.55411343368454 TIMED 1 26998U 01055B 26033.44621656 .00001880 00000+0 17594-3 0 9998 2 26998 74.0696 146.2474 0001947 315.9493 44.1536 14.94897433310684 CORIOLIS 1 27640U 03001A 26034.02987448 .00000146 00000+0 89181-4 0 9991 2 27640 98.7152 42.9511 0013120 237.1222 122.8692 14.19898003195188 SORCE 1 27651U 03004A 26034.14637609 .00003803 00000+0 28937-3 0 9994 2 27651 39.9915 305.9531 0016555 173.8845 186.2153 15.02796885251727 MOST 1 27843U 03031D 26034.03366517 .00000089 00000+0 60733-4 0 9996 2 27843 98.7075 43.6156 0008798 281.2947 78.7242 14.21288939171659 SCISAT 1 1 27858U 03036A 26034.10378780 .00000774 00000+0 10399-3 0 9993 2 27858 73.9289 77.7168 0007124 184.7042 175.4069 14.81242001211599 SWIFT 1 28485U 04047A 26033.57750177 .00063329 00000+0 86340-3 0 9991 2 28485 20.5535 133.7398 0002636 230.9473 129.0736 15.55776717165784 HINODE (SOLAR-B) 1 29479U 06041A 26033.47937763 .00000764 00000+0 14022-3 0 9990 2 29479 98.0636 51.5777 0017433 0.0312 0.0891 14.68410373 35105 SHIJIAN-6 02A (SJ-6 02A) 1 29505U 06046A 26034.17792181 .00008050 00000+0 43255-3 0 9992 2 29505 97.6556 74.2724 0001993 225.0216 135.0854 15.15170445 51967 SHIJIAN-6 02B (SJ-6 02B) 1 29506U 06046B 26034.23065898 .00002544 00000+0 20464-3 0 9997 2 29506 97.6987 64.2662 0013285 151.5588 208.6364 15.00817517 50647 FGRST (GLAST) 1 33053U 08029A 26034.15877235 .00004318 00000+0 16430-3 0 9998 2 33053 25.5832 54.5297 0008526 183.1615 176.8870 15.23042177975379 SDO 1 36395U 10005A 26033.15753127 -.00000091 00000+0 00000+0 0 9996 2 36395 34.3665 88.3951 0000722 125.3144 233.1380 1.00276361 58706 CRYOSAT 2 1 36508U 10013A 26034.16993348 .00000158 00000+0 38550-4 0 9993 2 36508 92.0225 244.8514 0002549 83.1569 276.9928 14.51902184838630 X-SAT 1 37389U 11015C 26034.20125062 .00000398 00000+0 18694-3 0 9991 2 37389 98.3367 17.7117 0014569 20.9608 339.2167 14.25157556768599 GCOM-W1 (SHIZUKU) 1 38337U 12025A 26033.59909689 .00000720 00000+0 16985-3 0 9993 2 38337 98.2269 336.1472 0001397 80.8172 92.0917 14.57127033729430 NUSTAR 1 38358U 12031A 26034.25002314 .00019027 00000+0 11681-2 0 9993 2 38358 6.0275 317.6987 0009497 274.2305 28.9359 15.07205076 1305 NEOSSAT 1 39089U 13009D 26033.50298867 .00000205 00000+0 85536-4 0 9998 2 39089 98.4104 216.7594 0009939 290.0952 69.9164 14.35764857677418 BRITE-AUSTRIA 1 39091U 13009F 26034.05587708 .00000242 00000+0 97104-4 0 9992 2 39091 98.3918 216.8358 0009090 282.1050 77.9118 14.36473952677794 IRIS 1 39197U 13033A 26034.14179229 .00001521 00000+0 18158-3 0 9993 2 39197 97.9391 233.7842 0025430 39.7993 320.5081 14.85523648680472 HISAKI (SPRINT-A) 1 39253U 13049A 26033.57166841 .00000092 00000+0 38962-4 0 9993 2 39253 29.7180 184.3963 0136873 5.3912 354.8105 13.55527312613148 CASSIOPE 1 39265U 13055A 26034.12934387 .00045381 -42638-6 56808-3 0 9992 2 39265 80.9151 228.3992 0326354 151.3661 210.5936 15.15751806647295 STSAT-3 1 39422U 13066G 26034.16919549 .00003854 00000+0 29934-3 0 9994 2 39422 97.6078 6.4692 0014462 121.8301 238.4334 15.01832496664089 SWARM B 1 39451U 13067A 26034.21378074 .00004441 00000+0 16390-3 0 9990 2 39451 87.7436 22.9378 0002873 99.5143 260.6430 15.27502818662780 SWARM A 1 39452U 13067B 26034.14510679 .00012435 00000+0 23795-3 0 9991 2 39452 87.3342 105.9436 0002825 93.3632 266.7950 15.47918904685498 SWARM C 1 39453U 13067C 26034.14500905 .00012227 00000+0 23394-3 0 9997 2 39453 87.3339 104.5267 0002833 93.4351 266.7233 15.47920552685452 BRITE-CA1 (TORONTO) 1 40020U 14033L 26033.35954546 .00000982 00000+0 15588-3 0 9990 2 40020 97.9522 164.9710 0078754 349.5216 10.4346 14.72366118622378 OCO 2 1 40059U 14035A 26034.11272772 .00000599 00000+0 14299-3 0 9995 2 40059 98.2274 337.3987 0001541 74.3585 285.7784 14.57132159616524 BRITE-PL2 (HEWELIUSZ) 1 40119U 14049B 26034.11552645 .00003157 00000+0 30124-3 0 9995 2 40119 97.8982 145.2538 0014017 189.0261 171.0708 14.93982710621421 MMS 1 1 40482U 15011A 26034.25002314 -.00002011 00000+0 00000+0 0 9991 2 40482 70.3303 350.6485 8461333 164.5467 317.5974 0.28039764 1385 MMS 2 1 40483U 15011B 26034.25002314 -.00002014 00000+0 00000+0 0 9995 2 40483 70.3264 350.6407 8463837 164.5609 317.6037 0.28010540 1387 MMS 3 1 40484U 15011C 26034.25002314 -.00002013 00000+0 00000+0 0 9995 2 40484 70.3324 350.6567 8463710 164.5565 317.5999 0.28010655 1386 MMS 4 1 40485U 15011D 26034.25002314 -.00002012 00000+0 00000+0 0 9995 2 40485 70.3335 350.6472 8464045 164.5449 317.5941 0.28039576 1387 ASTROSAT 1 40930U 15052A 26034.13746718 .00002164 00000+0 18289-3 0 9994 2 40930 5.9983 40.0441 0008815 279.1159 80.7971 14.82189728559901 DAMPE 1 41173U 15078A 26034.14732743 .00001627 00000+0 57972-4 0 9992 2 41173 97.4560 38.9875 0011702 183.6574 176.4583 15.30367752564046 PISAT 1 41784U 16059B 26033.46704894 .00001346 00000+0 23807-3 0 9997 2 41784 97.8174 39.7436 0027695 276.4793 83.3260 14.68674069499961 HXMT (HUIYAN) 1 42758U 17034A 26033.95199109 .00005638 00000+0 28849-3 0 9993 2 42758 43.0124 209.7313 0031557 12.6292 347.5340 15.16993390477268 FLYING LAPTOP 1 42831U 17042G 26034.16530256 .00002729 00000+0 22192-3 0 9993 2 42831 97.4210 195.3968 0015252 215.5983 144.4225 15.00267889466354 ZHANGHENG 1-01 (CSES-1) 1 43194U 18015C 26034.17788420 .00011136 00000+0 50265-3 0 9990 2 43194 97.6696 197.2802 0016302 22.8339 337.3618 15.21050549444278 SALSAT 1 46495U 20068K 26033.50211569 .00009220 00000+0 34576-3 0 9997 2 46495 97.8821 28.6199 0012025 60.4103 299.8331 15.27419284294782 IXPE 1 49954U 21121A 26034.16668981 .00019230 00000+0 11303-2 0 9992 2 49954 0.2297 250.0893 0007621 214.1014 194.5286 15.08713012 5568